| time (UTC) | temp F | wind direction | speed MPH | gust MPH | rain 1hr in | rain 24hr in | rain mn in | humidity % | barometer mb |
| 20260904080040 | 51 | 121 | 0.0 | 0.0 | 0.00 | 0.00 | 0.00 | 89 | 1010.7 |
| 20260904074539 | 52 | 121 | 0.0 | 0.0 | 0.00 | 0.00 | 0.00 | 89 | 1010.6 |
| 20260904073035 | 52 | 121 | 0.0 | 0.0 | 0.00 | 0.00 | 0.00 | 88 | 1010.6 |
| 20260904071533 | 52 | 121 | 0.0 | 0.0 | 0.00 | 0.00 | 0.00 | 88 | 1010.5 |
| 20260904070031 | 52 | 121 | 0.0 | 0.0 | 0.00 | 0.00 | 0.00 | 88 | 1010.4 |
| 20260904064528 | 53 | 121 | 0.0 | 0.0 | 0.00 | 0.00 | 0.00 | 87 | 1010.3 |
| 20260904063028 | 53 | 121 | 0.0 | 0.0 | 0.00 | 0.00 | 0.00 | 87 | 1010.5 |
| 20260904061539 | 53 | 121 | 0.0 | 0.0 | 0.00 | 0.00 | 0.00 | 86 | 1010.5 |
| 20260904060026 | 53 | 121 | 0.0 | 0.0 | 0.00 | 0.00 | 0.00 | 85 | 1010.5 |
| 20260904054524 | 53 | 121 | 0.0 | 0.0 | 0.00 | 0.00 | 0.00 | 84 | 1010.4 |
| 20260904053022 | 53 | 121 | 0.0 | 0.0 | 0.00 | 0.00 | 0.00 | 83 | 1010.4 |
| 20260904051522 | 54 | 121 | 0.0 | 0.0 | 0.00 | 0.00 | 0.00 | 82 | 1010.3 |
| 20260904050021 | 54 | 121 | 0.0 | 0.0 | 0.00 | 0.00 | 0.00 | 81 | 1010.3 |
| 20260904044527 | 54 | 121 | 0.0 | 0.0 | 0.00 | 0.00 | 0.00 | 80 | 1010.2 |
| 20260904043020 | 55 | 121 | 0.0 | 0.0 | 0.00 | 0.00 | 0.00 | 79 | 1010.2 |
| 20260904041512 | 55 | 121 | 0.0 | 0.0 | 0.00 | 0.00 | 0.00 | 78 | 1010.2 |
| 20260904040011 | 56 | 121 | 0.0 | 0.0 | 0.00 | 0.00 | 0.00 | 77 | 1010.1 |
| 20260904034508 | 56 | 121 | 0.0 | 0.0 | 0.00 | 0.00 | 0.00 | 77 | 1010.0 |
| 20260904033006 | 57 | 121 | 0.0 | 0.0 | 0.00 | 0.00 | 0.00 | 76 | 1009.9 |
| 20260904031506 | 58 | 121 | 0.0 | 1.0 | 0.00 | 0.00 | 0.00 | 74 | 1009.8 |
| 20260904030015 | 59 | 121 | 0.0 | 1.0 | 0.00 | 0.00 | 0.00 | 74 | 1009.8 |
| 20260904024505 | 59 | 121 | 0.0 | 2.0 | 0.00 | 0.00 | 0.00 | 73 | 1009.7 |
| 20260904023004 | 60 | 121 | 0.0 | 0.0 | 0.00 | 0.00 | 0.00 | 71 | 1009.7 |
| 20260904021508 | 61 | 121 | 0.0 | 0.0 | 0.00 | 0.00 | 0.00 | 71 | 1009.5 |
| 20260904020004 | 61 | 122 | 0.0 | 1.0 | 0.00 | 0.00 | 0.00 | 70 | 1009.5 |
| 20260904014505 | 62 | 122 | 0.0 | 2.0 | 0.00 | 0.01 | 0.00 | 70 | 1009.4 |
| 20260904013003 | 63 | 11 | 0.0 | 2.0 | 0.00 | 0.01 | 0.00 | 69 | 1009.4 |
| 20260904011503 | 63 | 171 | 0.0 | 2.0 | 0.00 | 0.01 | 0.00 | 67 | 1009.2 |
| 20260904010002 | 63 | 281 | 0.0 | 2.0 | 0.00 | 0.01 | 0.00 | 67 | 1009.3 |
| 20260904004502 | 64 | 190 | 1.0 | 6.0 | 0.00 | 0.02 | 0.00 | 66 | 1009.2 |
| 20260904003002 | 65 | 111 | 0.0 | 3.0 | 0.00 | 0.02 | 0.00 | 65 | 1009.2 |
| 20260904000100 | 65 | 273 | 1.0 | 5.0 | 0.00 | 0.02 | 0.00 | 62 | 1009.2 |
| 20260903234600 | 65 | 149 | 0.0 | 6.0 | 0.00 | 0.02 | 0.00 | 64 | 1009.2 |
| 20260903233059 | 65 | 178 | 2.0 | 7.0 | 0.00 | 0.02 | 0.00 | 62 | 1009.4 |
| 20260903231606 | 65 | 176 | 2.0 | 5.0 | 0.00 | 0.02 | 0.00 | 61 | 1009.4 |
| 20260903230100 | 67 | 172 | 2.0 | 5.0 | 0.00 | 0.02 | 0.00 | 60 | 1009.4 |
| 20260903224556 | 67 | 196 | 1.0 | 4.0 | 0.00 | 0.02 | 0.00 | 58 | 1009.4 |
| 20260903223058 | 67 | 170 | 1.0 | 4.0 | 0.00 | 0.02 | 0.00 | 58 | 1009.5 |
| 20260903221557 | 65 | 167 | 0.0 | 4.0 | 0.00 | 0.02 | 0.00 | 61 | 1009.6 |
| 20260903220117 | 65 | 186 | 0.0 | 3.0 | 0.00 | 0.02 | 0.00 | 60 | 1009.8 |
| 20260903214550 | 65 | 143 | 0.0 | 2.0 | 0.00 | 0.02 | 0.00 | 62 | 1009.9 |
| 20260903213050 | 64 | 229 | 0.0 | 2.0 | 0.00 | 0.02 | 0.00 | 63 | 1010.0 |
| 20260903211554 | 64 | 174 | 0.0 | 3.0 | 0.00 | 0.02 | 0.00 | 61 | 1010.0 |
| 20260903210051 | 64 | 350 | 0.0 | 2.0 | 0.00 | 0.02 | 0.00 | 63 | 1009.9 |
| 20260903204546 | 64 | 15 | 0.0 | 2.0 | 0.00 | 0.02 | 0.00 | 65 | 1009.9 |
| 20260903203045 | 64 | 211 | 0.0 | 3.0 | 0.00 | 0.02 | 0.00 | 64 | 1009.8 |
| 20260903201545 | 64 | 215 | 0.0 | 3.0 | 0.00 | 0.02 | 0.00 | 65 | 1009.8 |
| 20260903200043 | 64 | 159 | 1.0 | 5.0 | 0.00 | 0.02 | 0.00 | 64 | 1009.7 |
| 20260903194541 | 63 | 201 | 0.0 | 7.0 | 0.00 | 0.02 | 0.00 | 64 | 1009.6 |
| 20260903193040 | 63 | 192 | 1.0 | 3.0 | 0.00 | 0.02 | 0.00 | 62 | 1009.6 |
| 20260903191550 | 63 | 161 | 2.0 | 7.0 | 0.00 | 0.02 | 0.00 | 64 | 1009.5 |
| 20260903190038 | 62 | 175 | 1.0 | 9.0 | 0.00 | 0.02 | 0.00 | 65 | 1009.5 |
| 20260903184544 | 62 | 172 | 2.0 | 7.0 | 0.00 | 0.02 | 0.00 | 63 | 1009.6 |
| 20260903183043 | 62 | 157 | 4.0 | 10.0 | 0.00 | 0.02 | 0.00 | 63 | 1009.5 |
| 20260903181536 | 63 | 157 | 3.0 | 9.0 | 0.00 | 0.02 | 0.00 | 64 | 1009.4 |
| 20260903180044 | 63 | 192 | 2.0 | 9.0 | 0.00 | 0.02 | 0.00 | 63 | 1009.3 |
| 20260903174533 | 63 | 202 | 0.0 | 5.0 | 0.00 | 0.02 | 0.00 | 64 | 1009.1 |
| 20260903173032 | 63 | 70 | 0.0 | 7.0 | 0.00 | 0.02 | 0.00 | 64 | 1008.9 |
| 20260903171530 | 64 | 195 | 1.0 | 10.0 | 0.00 | 0.02 | 0.00 | 62 | 1008.9 |
| 20260903170027 | 62 | 205 | 3.0 | 7.0 | 0.00 | 0.02 | 0.00 | 66 | 1008.8 |
| 20260903164526 | 62 | 162 | 4.0 | 9.0 | 0.00 | 0.02 | 0.00 | 66 | 1008.7 |
| 20260903163030 | 61 | 175 | 3.0 | 11.0 | 0.00 | 0.02 | 0.00 | 67 | 1008.7 |
| 20260903161522 | 61 | 243 | 2.0 | 6.0 | 0.00 | 0.02 | 0.00 | 67 | 1008.7 |
| 20260903160022 | 61 | 360 | 0.0 | 2.0 | 0.00 | 0.02 | 0.00 | 69 | 1008.6 |
| 20260903154516 | 60 | 190 | 1.0 | 4.0 | 0.00 | 0.02 | 0.00 | 69 | 1008.5 |
| 20260903153014 | 60 | 165 | 0.0 | 6.0 | 0.00 | 0.02 | 0.00 | 69 | 1008.6 |
| 20260903151514 | 59 | 173 | 0.0 | 3.0 | 0.00 | 0.02 | 0.00 | 70 | 1008.4 |
| 20260903150013 | 59 | 206 | 0.0 | 4.0 | 0.00 | 0.02 | 0.00 | 70 | 1008.3 |
| 20260903144509 | 59 | 186 | 0.0 | 8.0 | 0.00 | 0.02 | 0.00 | 70 | 1008.2 |
| 20260903143008 | 59 | 180 | 0.0 | 2.0 | 0.00 | 0.02 | 0.00 | 72 | 1008.1 |
| 20260903141509 | 59 | 207 | 0.0 | 9.0 | 0.00 | 0.02 | 0.00 | 72 | 1008.1 |
| 20260903140005 | 58 | 139 | 1.0 | 4.0 | 0.00 | 0.02 | 0.00 | 73 | 1008.0 |
| 20260903134600 | 57 | 198 | 0.0 | 2.0 | 0.00 | 0.02 | 0.00 | 73 | 1007.8 |
| 20260903133110 | 58 | 192 | 0.0 | 1.0 | 0.00 | 0.02 | 0.00 | 73 | 1007.6 |
| 20260903131609 | 58 | 192 | 0.0 | 1.0 | 0.00 | 0.02 | 0.00 | 73 | 1007.6 |
| 20260903130114 | 57 | 114 | 0.0 | 2.0 | 0.00 | 0.02 | 0.00 | 73 | 1007.4 |
| 20260903124556 | 57 | 114 | 0.0 | 2.0 | 0.00 | 0.02 | 0.00 | 73 | 1007.2 |
| 20260903123054 | 58 | 238 | 0.0 | 2.0 | 0.00 | 0.02 | 0.00 | 72 | 1007.3 |
| 20260903121552 | 58 | 238 | 0.0 | 7.0 | 0.00 | 0.02 | 0.00 | 71 | 1007.2 |
| 20260903120051 | 58 | 164 | 1.0 | 3.0 | 0.00 | 0.02 | 0.00 | 71 | 1007.3 |
| 20260903114549 | 58 | 153 | 2.0 | 11.0 | 0.00 | 0.02 | 0.00 | 72 | 1007.1 |
| 20260903113047 | 58 | 47 | 0.0 | 1.0 | 0.00 | 0.02 | 0.00 | 71 | 1007.0 |
| 20260903111545 | 59 | 333 | 0.0 | 5.0 | 0.00 | 0.02 | 0.00 | 71 | 1006.8 |
| 20260903110044 | 59 | 337 | 0.0 | 3.0 | 0.00 | 0.02 | 0.00 | 70 | 1006.8 |
| 20260903104542 | 59 | 217 | 2.0 | 11.0 | 0.00 | 0.02 | 0.00 | 71 | 1006.7 |
| 20260903103041 | 59 | 169 | 0.0 | 5.0 | 0.00 | 0.02 | 0.00 | 69 | 1006.5 |
| 20260903101540 | 59 | 177 | 1.0 | 10.0 | 0.00 | 0.02 | 0.00 | 69 | 1006.4 |
| 20260903100039 | 59 | 180 | 2.0 | 8.0 | 0.00 | 0.02 | 0.00 | 70 | 1006.2 |
| 20260903094537 | 59 | 96 | 0.0 | 10.0 | 0.00 | 0.02 | 0.00 | 70 | 1006.3 |
| 20260903093042 | 59 | 102 | 0.0 | 8.0 | 0.00 | 0.02 | 0.00 | 69 | 1006.2 |
| 20260903091538 | 59 | 65 | 1.0 | 9.0 | 0.00 | 0.02 | 0.00 | 69 | 1006.3 |
| 20260903090036 | 59 | 180 | 0.0 | 4.0 | 0.00 | 0.02 | 0.00 | 69 | 1006.2 |
| 20260903084533 | 60 | 140 | 1.0 | 6.0 | 0.00 | 0.02 | 0.00 | 69 | 1006.4 |
| 20260903083043 | 60 | 215 | 1.0 | 5.0 | 0.00 | 0.02 | 0.00 | 70 | 1006.4 |
| 20260903081532 | 60 | 182 | 1.0 | 6.0 | 0.00 | 0.02 | 0.00 | 70 | 1006.3 |